Weather History for Budapest Ferihegy, Hungary

Change the Weather History Date:

Sunday, January 20, 2013

  Actual Average Record
Temperature  
Mean Temperature 32 °F -  
Max Temperature 35 °F 38 °F 55 °F (2008)
Min Temperature 28 °F 23 °F 15 °F (2005)
Degree Days  
Heating Degree Days 34    
Moisture  
Dew Point 31 °F    
Average Humidity 95    
Maximum Humidity 100    
Minimum Humidity 86    
Precipitation  
Precipitation 0.00 in - - ()
Sea Level Pressure  
Sea Level Pressure 29.55 in    
Wind  
Wind Speed 6 mph ()    
Max Wind Speed 10 mph    
Max Gust Speed -    
Visibility 2.3 miles    
Events Rain , Snow    
Averages and records for this station are not official NWS values.
T = Trace of Precipitation, MM = Missing Value Source: Averaged Metar Reports

Daily Weather History Graph

Daily Weather History Graph

Search for Another Location

Airport:

Trip Planner

Search our weather history database for the weather conditions in past years. The results will help you decide how hot, cold, wet, or windy it might be!

Date:

Astronomy

Jan. 20, 2013 Rise Set
Actual Time 7:22 AM CET 4:26 PM CET
Civil Twilight 6:47 AM CET 5:00 PM CET
Nautical Twilight 6:10 AM CET 5:38 PM CET
Astronomical Twilight 5:33 AM CET 6:14 PM CET
Moon 11:18 AM CET (1/20) 1:33 AM CET (1/20)
Length of Visible Light 10h 12m
Length of Day
9h 04m
Waxing Gibbous, 64% of the Moon is Illuminated
Jan 20
Waxing Gibbous
Jan 27
Full
Feb 3
Last Quarter
Feb 10
New
Feb 17
First Quarter

Hourly Weather History & Observations

Time (CET) Temp. Windchill Dew Point Humidity Pressure Visibility Wind Dir Wind Speed Gust Speed Precip Events Conditions
12:00 AM 28.4 °F 20.4 °F 24.8 °F 86% 29.59 in 3.1 mi ESE 8.1 mph - N/A   Overcast
12:30 AM 28.4 °F 20.4 °F 26.6 °F 93% 29.59 in 3.1 mi ESE 8.1 mph - N/A   Overcast
1:00 AM 28.4 °F 20.4 °F 26.6 °F 93% 29.59 in 3.1 mi ESE 8.1 mph - N/A   Overcast
1:30 AM 30.2 °F 21.9 °F 26.6 °F 86% 29.59 in 3.1 mi ESE 9.2 mph - N/A   Overcast
2:00 AM 30.2 °F 21.9 °F 26.6 °F 86% 29.59 in 3.1 mi East 9.2 mph - N/A   Overcast
2:30 AM 28.4 °F 19.7 °F 26.6 °F 93% 29.59 in 3.1 mi East 9.2 mph - N/A   Mostly Cloudy
3:00 AM 28.4 °F 19.7 °F 26.6 °F 93% 29.59 in 3.1 mi ESE 9.2 mph - N/A   Overcast
3:30 AM 28.4 °F 21.2 °F 26.6 °F 93% 29.59 in 2.5 mi East 6.9 mph - N/A   Overcast
4:00 AM 28.4 °F 22.2 °F 26.6 °F 93% 29.59 in 1.7 mi ENE 5.8 mph - N/A Snow Light Snow
4:30 AM 30.2 °F 22.6 °F 28.4 °F 93% 29.56 in 1.9 mi ENE 8.1 mph - N/A Snow Light Snow
5:00 AM 30.2 °F 22.6 °F 28.4 °F 93% 29.56 in 2.5 mi East 8.1 mph - N/A   Overcast
5:30 AM 30.2 °F 23.4 °F 28.4 °F 93% 29.56 in 2.5 mi ENE 6.9 mph - N/A   Overcast
6:00 AM 30.2 °F 25.4 °F 28.4 °F 93% 29.56 in 2.5 mi East 4.6 mph - N/A   Overcast
6:30 AM 30.2 °F 23.4 °F 28.4 °F 93% 29.56 in 2.5 mi East 6.9 mph - N/A   Overcast
7:00 AM 30.2 °F 26.7 °F 28.4 °F 93% 29.59 in 2.2 mi Variable 3.5 mph - N/A   Overcast
7:30 AM 30.2 °F 26.7 °F 28.4 °F 93% 29.59 in 1.9 mi Variable 3.5 mph - N/A   Overcast
8:00 AM 30.2 °F - 28.4 °F 93% 29.59 in 1.9 mi Variable 2.3 mph - N/A Snow Light Snow Grains
8:30 AM 30.2 °F - 28.4 °F 93% 29.59 in 1.6 mi Variable 2.3 mph - N/A   Overcast
9:00 AM 30.2 °F - 28.4 °F 93% 29.59 in 1.1 mi Variable 2.3 mph - N/A Rain , Snow Light Freezing Rain
9:30 AM 32.0 °F - 30.2 °F 93% 29.59 in 1.1 mi Variable 2.3 mph - N/A Rain , Snow Rain
10:00 AM 32.0 °F 27.5 °F 30.2 °F 93% 29.59 in 1.2 mi East 4.6 mph - N/A   Light Freezing Drizzle
10:30 AM 32.0 °F 28.7 °F 30.2 °F 93% 29.59 in 1.9 mi Variable 3.5 mph - N/A   Overcast
11:00 AM 32.0 °F 27.5 °F 30.2 °F 93% 29.59 in 2.2 mi NNE 4.6 mph - N/A   Overcast
11:30 AM 32.0 °F 28.7 °F 32.0 °F 100% 29.56 in - Variable 3.5 mph - N/A   Overcast
12:00 PM 32.0 °F 23.6 °F 32.0 °F 100% 29.56 in 2.2 mi ENE 10.4 mph - N/A   Overcast
12:30 PM 33.8 °F 27.0 °F 32.0 °F 93% 29.53 in 2.2 mi East 8.1 mph - N/A   Mostly Cloudy
1:00 PM 33.8 °F 27.0 °F 32.0 °F 93% 29.53 in 2.2 mi East 8.1 mph - N/A   Mostly Cloudy
1:30 PM 33.8 °F 27.7 °F 32.0 °F 93% 29.53 in 2.2 mi East 6.9 mph - N/A   Mostly Cloudy
2:00 PM 33.8 °F 27.7 °F 32.0 °F 93% 29.53 in 2.2 mi East 6.9 mph - N/A   Mostly Cloudy
2:30 PM 33.8 °F 27.0 °F 32.0 °F 93% 29.50 in 2.2 mi ENE 8.1 mph - N/A   Overcast
3:00 PM 33.8 °F 29.6 °F 32.0 °F 93% 29.53 in 2.2 mi ENE 4.6 mph - N/A   Overcast
3:30 PM 33.8 °F 30.8 °F 32.0 °F 93% 29.50 in 2.2 mi Variable 3.5 mph - N/A   Overcast
4:00 PM 33.8 °F - 33.8 °F 100% 29.50 in 2.5 mi Variable 1.2 mph - N/A   Mostly Cloudy
4:30 PM 33.8 °F 30.8 °F 32.0 °F 93% 29.53 in 2.2 mi Variable 3.5 mph - N/A   Mostly Cloudy
5:00 PM 33.8 °F - 32.0 °F 93% 29.50 in 2.2 mi Variable 2.3 mph - N/A   Overcast
5:30 PM 33.8 °F 27.0 °F 33.8 °F 100% 29.50 in 2.2 mi ENE 8.1 mph - N/A   Overcast
6:00 PM 33.8 °F 27.0 °F 33.8 °F 100% 29.50 in 2.2 mi ENE 8.1 mph - N/A   Overcast
6:30 PM 33.8 °F 27.0 °F 33.8 °F 100% 29.50 in 2.5 mi NE 8.1 mph - N/A   Mostly Cloudy
7:00 PM 33.8 °F 27.0 °F 33.8 °F 100% 29.50 in 2.5 mi NE 8.1 mph - N/A   Mostly Cloudy
7:30 PM 33.8 °F 27.7 °F 33.8 °F 100% 29.50 in 2.5 mi NE 6.9 mph - N/A   Mostly Cloudy
8:00 PM 33.8 °F 27.7 °F 33.8 °F 100% 29.53 in 2.5 mi NE 6.9 mph - N/A   Mostly Cloudy
8:30 PM 33.8 °F 27.0 °F 33.8 °F 100% 29.50 in 2.5 mi NE 8.1 mph - N/A   Mostly Cloudy
9:00 PM 33.8 °F 27.0 °F 33.8 °F 100% 29.50 in 2.5 mi NE 8.1 mph - N/A   Mostly Cloudy
9:30 PM 33.8 °F 26.4 °F 33.8 °F 100% 29.50 in 2.5 mi NE 9.2 mph - N/A   Mostly Cloudy
10:00 PM 33.8 °F 25.8 °F 33.8 °F 100% 29.50 in 2.5 mi ENE 10.4 mph - N/A   Mostly Cloudy
10:30 PM 33.8 °F 26.4 °F 33.8 °F 100% 29.50 in 2.5 mi ENE 9.2 mph - N/A   Mostly Cloudy
11:00 PM 35.6 °F 29.2 °F 35.6 °F 100% 29.50 in 2.5 mi ENE 8.1 mph - N/A   Mostly Cloudy
11:30 PM 35.6 °F 29.2 °F 35.6 °F 100% 29.50 in 2.5 mi NE 8.1 mph - N/A   Light Drizzle